Location: Asheville, NC
(35.6000°N, 82.5500°W)
Time: 20:29:15
(UTC-04:00)

RS-15 - Pass Details

Date: 12 March 2018
Orbit: 1890 x 2154 km, 64.8° (Epoch: 20 June)

Event Time Altitude Azimuth Distance (km) Brightness Sun altitude
Exits shadow 03:12:42 31° 332° (NNW) 3,210 9.1 -51.2°
Drops below altitude 10° 03:21:28 10° 19° (NNE) 4,561 10.4 -50.1°
Sets 03:25:31 0° 30° (NNE) 5,528 11.0 -49.5°
